Location: Salillas
(41.9950°N, 0.2228°W)
Time: 03:06:48
(UTC+00:00)

STARLINK-1125 - Pass Details

Date: 29 March 2020
Orbit: 548 x 551 km, 53.0° (Epoch: 31 May)

Event Time Altitude Azimuth Distance (km) Brightness Sun altitude
Rises 19:59:54 0° 307° (NW) 2,722 8.7 -18.1°
Reaches altitude 10° 20:02:08 10° 308° (NW) 1,826 7.4 -18.5°
Maximum altitude 20:06:17 86° 35° (NE) 555 3.5 -19.2°
Enters shadow 20:07:15 52° 123° (ESE) 685 3.6 -19.4°
